,,,PA_Meas_PMT16A,,PR_Meas_QMR101_102,,RH_Meas_QMH101,,SR_Meas_QMS101,,TA_Meas_QMH101,,GenWind,,GenWind,
date,time,status,PA,status,PR,status,RH,status,SR,status,TA,status,DirAvg,status,SpdAvg,
2010-05-22, 00:00:04,VALID,1003.7,VALID,0,VALID,93.7055,VALID,0.100563,VALID,25.5707,VALID,1,VALID,0.513672,
2010-05-22, 00:01:04,VALID,1003.71,VALID,0,VALID,94.1022,VALID,0,VALID,25.5513,VALID,1,VALID,0.290625,
2010-05-22, 00:02:04,VALID,1003.7,VALID,0,VALID,94.3311,VALID,0.100563,VALID,25.5318,VALID,360,VALID,0.33125,
2010-05-22, 00:03:04,VALID,1003.73,VALID,0,VALID,94.5371,VALID,0.100563,VALID,25.5318,VALID,1,VALID,0.333984,
2010-05-22, 00:04:04,VALID,1003.74,VALID,0,VALID,94.6057,VALID,0.100563,VALID,25.4928,VALID,1,VALID,0.254687,
2010-05-22, 00:05:04,VALID,1003.73,VALID,0,VALID,94.7202,VALID,0.100563,VALID,25.5123,VALID,1,VALID,0.195313,
2010-05-22, 00:06:04,VALID,1003.7,VALID,0,VALID,94.8117,VALID,0.100563,VALID,25.4928,VALID,1,VALID,0.211719,
2010-05-22, 00:07:04,VALID,1003.68,VALID,0,VALID,94.8651,VALID,0.100563,VALID,25.5123,VALID,1,VALID,0.328516,
2010-05-22, 00:08:04,VALID,1003.65,VALID,0,VALID,94.8346,VALID,0.100563,VALID,25.5123,VALID,1,VALID,0.187109,
2010-05-22, 00:09:04,VALID,1003.6,VALID,0,VALID,94.8651,VALID,0.100563,VALID,25.5532,VALID,353,VALID,0.539844,
2010-05-22, 00:10:04,VALID,1003.6,VALID,0,VALID,94.8651,VALID,0.100563,VALID,25.5298,VALID,353,VALID,0.375391,
2010-05-22, 00:11:04,VALID,1003.58,VALID,0,VALID,94.7812,VALID,0,VALID,25.5921,VALID,341,VALID,0.460156,
2010-05-22, 00:12:04,VALID,1003.58,VALID,0,VALID,94.6973,VALID,0.100563,VALID,25.5902,VALID,341,VALID,0.438281,
2010-05-22, 00:13:04,VALID,1003.61,VALID,0,VALID,94.6515,VALID,0,VALID,25.5707,VALID,341,VALID,0.463281,
2010-05-22, 00:14:04,VALID,1003.63,VALID,0,VALID,94.56,VALID,0.100563,VALID,25.5298,VALID,341,VALID,0.313672,
2010-05-22, 00:15:04,VALID,1003.63,VALID,0,VALID,94.6363,VALID,0.100563,VALID,25.5123,VALID,341,VALID,0.292188,
2010-05-22, 00:16:04,VALID,1003.62,VALID,0,VALID,94.6515,VALID,0.100563,VALID,25.4909,VALID,341,VALID,0.480859,
2010-05-22, 00:17:04,VALID,1003.59,VALID,0,VALID,94.6591,VALID,0.100563,VALID,25.5123,VALID,341,VALID,0.477344,
2010-05-22, 00:18:04,VALID,1003.56,VALID,0,VALID,94.6897,VALID,0.100563,VALID,25.5123,VALID,341,VALID,0.337109,
2010-05-22, 00:19:04,VALID,1003.53,VALID,0,VALID,94.8422,VALID,0,VALID,25.4928,VALID,342,VALID,0.484375,
2010-05-22, 00:20:04,VALID,1003.47,VALID,0,VALID,94.8041,VALID,0.100563,VALID,25.5123,VALID,342,VALID,0.473047,
2010-05-22, 00:21:04,VALID,1003.5,VALID,0,VALID,94.7736,VALID,0.100563,VALID,25.5318,VALID,342,VALID,0.183984,
2010-05-22, 00:22:04,VALID,1003.5,VALID,0,VALID,94.7431,VALID,0,VALID,25.5123,VALID,360,VALID,0.469141,
2010-05-22, 00:23:04,VALID,1003.5,VALID,0,VALID,94.7965,VALID,0,VALID,25.5318,VALID,360,VALID,0.346875,
2010-05-22, 00:24:04,VALID,1003.52,VALID,0,VALID,94.7049,VALID,0.100563,VALID,25.5532,VALID,360,VALID,0.391016,
2010-05-22, 00:25:04,VALID,1003.53,VALID,0,VALID,94.5676,VALID,0,VALID,25.5513,VALID,360,VALID,0.342578,
2010-05-22, 00:26:04,VALID,1003.55,VALID,0,VALID,94.4761,VALID,0,VALID,25.5298,VALID,360,VALID,0.0703125,
2010-05-22, 00:27:04,VALID,1003.53,VALID,0,VALID,94.4074,VALID,0,VALID,25.5513,VALID,360,VALID,0.29375,
2010-05-22, 00:28:04,VALID,1003.51,VALID,0,VALID,94.3769,VALID,0,VALID,25.5513,VALID,359,VALID,0.485547,
2010-05-22, 00:29:04,VALID,1003.49,VALID,0,VALID,94.354,VALID,0.100563,VALID,25.5513,VALID,359,VALID,0.419531,
2010-05-22, 00:30:04,VALID,1003.43,VALID,0,VALID,94.3387,VALID,0,VALID,25.5513,VALID,359,VALID,0.404687,
2010-05-22, 00:31:04,VALID,1003.44,VALID,0,VALID,94.3235,VALID,0,VALID,25.5727,VALID,358,VALID,0.474609,
2010-05-22, 00:32:04,VALID,1003.42,VALID,0,VALID,94.2548,VALID,0,VALID,25.5318,VALID,358,VALID,0.308984,
2010-05-22, 00:33:04,VALID,1003.41,VALID,0,VALID,94.2472,VALID,0.100563,VALID,25.5318,VALID,358,VALID,0.307031,
2010-05-22, 00:34:04,VALID,1003.43,VALID,0,VALID,94.293,VALID,0.100563,VALID,25.5123,VALID,344,VALID,0.423828,
2010-05-22, 00:35:04,VALID,1003.42,VALID,0,VALID,94.1404,VALID,0,VALID,25.5532,VALID,344,VALID,0.356641,
2010-05-22, 00:36:04,VALID,1003.4,VALID,0,VALID,93.9878,VALID,0,VALID,25.5707,VALID,344,VALID,0.322266,
2010-05-22, 00:37:04,VALID,1003.4,VALID,0,VALID,93.9649,VALID,0,VALID,25.5707,VALID,344,VALID,0.168359,
2010-05-22, 00:38:04,VALID,1003.35,VALID,0,VALID,93.9039,VALID,0,VALID,25.6097,VALID,344,VALID,0.0523437,
2010-05-22, 00:39:04,VALID,1003.33,VALID,0,VALID,93.9725,VALID,0,VALID,25.6311,VALID,344,VALID,0.0636719,
2010-05-22, 00:40:04,VALID,1003.32,VALID,0,VALID,93.8963,VALID,0,VALID,25.5902,VALID,344,VALID,0.0726563,
2010-05-22, 00:41:04,VALID,1003.29,VALID,0,VALID,93.9802,VALID,0,VALID,25.6097,VALID,344,VALID,0,
2010-05-22, 00:42:04,VALID,1003.28,VALID,0,VALID,94.0183,VALID,0,VALID,25.6506,VALID,344,VALID,0.294141,
2010-05-22, 00:43:04,VALID,1003.26,VALID,0,VALID,93.8886,VALID,0.100563,VALID,25.6486,VALID,344,VALID,0.123438,
2010-05-22, 00:44:04,VALID,1003.28,VALID,0,VALID,93.881,VALID,0,VALID,25.6486,VALID,344,VALID,0.247656,
2010-05-22, 00:45:04,VALID,1003.27,VALID,0,VALID,93.9573,VALID,0,VALID,25.6486,VALID,344,VALID,0.116016,
2010-05-22, 00:46:04,VALID,1003.3,VALID,0,VALID,94.0641,VALID,0,VALID,25.6876,VALID,344,VALID,0.217578,
2010-05-22, 00:47:04,VALID,1003.28,VALID,0,VALID,94.1709,VALID,0.100563,VALID,25.7071,VALID,344,VALID,0.419922,
2010-05-22, 00:48:04,VALID,1003.29,VALID,0,VALID,94.148,VALID,0.100563,VALID,25.746,VALID,344,VALID,0.210938,
2010-05-22, 00:49:04,VALID,1003.27,VALID,0,VALID,94.0946,VALID,0,VALID,25.7655,VALID,344,VALID,0.482031,
2010-05-22, 00:50:04,VALID,1003.25,VALID,0,VALID,93.8963,VALID,0,VALID,25.785,VALID,344,VALID,0.141016,
2010-05-22, 00:51:04,VALID,1003.25,VALID,0,VALID,93.6674,VALID,0.100563,VALID,25.8044,VALID,344,VALID,0.155078,
2010-05-22, 00:52:04,VALID,1003.23,VALID,0,VALID,93.6521,VALID,0.100563,VALID,25.8239,VALID,344,VALID,0.171875,
2010-05-22, 00:53:04,VALID,1003.23,VALID,0,VALID,93.5682,VALID,0.100563,VALID,25.8219,VALID,344,VALID,0.358203,
2010-05-22, 00:54:04,VALID,1003.22,VALID,0,VALID,93.4004,VALID,0.100563,VALID,25.8219,VALID,344,VALID,0.214844,
2010-05-22, 00:55:04,VALID,1003.2,VALID,0,VALID,93.7818,VALID,0.100563,VALID,25.8629,VALID,344,VALID,0.192578,
2010-05-22, 00:56:04,VALID,1003.19,VALID,0,VALID,93.8276,VALID,0,VALID,25.8823,VALID,344,VALID,0.171094,
2010-05-22, 00:57:04,VALID,1003.17,VALID,0,VALID,93.6903,VALID,0,VALID,25.8629,VALID,344,VALID,0.424219,
2010-05-22, 00:58:04,VALID,1003.17,VALID,0,VALID,93.6064,VALID,0,VALID,25.9018,VALID,344,VALID,0.450391,
2010-05-22, 00:59:04,VALID,1003.2,VALID,0,VALID,93.2325,VALID,0.100563,VALID,25.9213,VALID,344,VALID,0.339844,
2010-05-22, 01:00:04,VALID,1003.18,VALID,0,VALID,92.7367,VALID,0.100563,VALID,25.9213,VALID,344,VALID,0.285547,
2010-05-22, 01:01:04,VALID,1003.15,VALID,0,VALID,92.6299,VALID,0,VALID,25.8823,VALID,344,VALID,0.280469,
2010-05-22, 01:02:04,VALID,1003.13,VALID,0,VALID,92.9426,VALID,0,VALID,25.8843,VALID,344,VALID,0.376953,
2010-05-22, 01:03:04,VALID,1003.08,VALID,0,VALID,93.3928,VALID,0,VALID,25.8044,VALID,344,VALID,0.553125,
2010-05-22, 01:04:04,VALID,1003.05,VALID,0,VALID,93.7437,VALID,0,VALID,25.8064,VALID,354,VALID,0.482031,
2010-05-22, 01:05:04,VALID,1003.04,VALID,0,VALID,93.9725,VALID,0,VALID,25.8064,VALID,353,VALID,0.381641,
2010-05-22, 01:06:04,VALID,1003.01,VALID,0,VALID,94.0488,VALID,0,VALID,25.7655,VALID,353,VALID,0.622266,
2010-05-22, 01:07:04,VALID,1002.98,VALID,0,VALID,94.1022,VALID,0,VALID,25.7869,VALID,327,VALID,0.438281,
2010-05-22, 01:08:04,VALID,1002.96,VALID,0,VALID,94.1785,VALID,0,VALID,25.748,VALID,327,VALID,0.485156,
2010-05-22, 01:09:04,VALID,1002.96,VALID,0,VALID,94.3158,VALID,0,VALID,25.7499,VALID,330,VALID,0.530859,
2010-05-22, 01:10:04,VALID,1002.96,VALID,0,VALID,94.4761,VALID,0,VALID,25.709,VALID,346,VALID,0.523047,
2010-05-22, 01:11:04,VALID,1002.9,VALID,0,VALID,94.56,VALID,0,VALID,25.6681,VALID,344,VALID,0.484375,
2010-05-22, 01:12:04,VALID,1002.94,VALID,0,VALID,94.7507,VALID,0,VALID,25.6681,VALID,342,VALID,0.559766,
2010-05-22, 01:13:04,VALID,1002.9,VALID,0,VALID,94.7736,VALID,0,VALID,25.6895,VALID,346,VALID,0.323828,
2010-05-22, 01:14:04,VALID,1002.9,VALID,0,VALID,94.8041,VALID,0,VALID,25.6876,VALID,346,VALID,0.288281,
2010-05-22, 01:15:04,VALID,1002.91,VALID,0,VALID,94.8194,VALID,0,VALID,25.709,VALID,346,VALID,0.103906,
2010-05-22, 01:16:04,VALID,1002.89,VALID,0,VALID,94.8346,VALID,0,VALID,25.7285,VALID,346,VALID,0.114063,
2010-05-22, 01:17:04,VALID,1002.88,VALID,0,VALID,94.7965,VALID,0,VALID,25.7285,VALID,346,VALID,0.547656,
2010-05-22, 01:18:04,VALID,1002.89,VALID,0,VALID,94.7125,VALID,0,VALID,25.7869,VALID,347,VALID,0.413672,
2010-05-22, 01:19:04,VALID,1002.86,VALID,0,VALID,94.6286,VALID,0,VALID,25.7869,VALID,347,VALID,0.401953,
2010-05-22, 01:20:04,VALID,1002.89,VALID,0,VALID,94.5829,VALID,0,VALID,25.8259,VALID,347,VALID,0.228125,
2010-05-22, 01:21:04,VALID,1002.86,VALID,0,VALID,94.4989,VALID,0,VALID,25.8259,VALID,347,VALID,0.163281,
2010-05-22, 01:22:04,VALID,1002.88,VALID,0,VALID,94.4532,VALID,0,VALID,25.8453,VALID,346,VALID,0.164844,
2010-05-22, 01:23:04,VALID,1002.89,VALID,0,VALID,94.4074,VALID,0,VALID,25.8648,VALID,346,VALID,0,
2010-05-22, 01:24:04,VALID,1002.86,VALID,0,VALID,94.3692,VALID,0,VALID,25.8648,VALID,346,VALID,0.0878906,
2010-05-22, 01:25:04,VALID,1002.85,VALID,0,VALID,94.3387,VALID,0,VALID,25.9057,VALID,346,VALID,0.0855469,
2010-05-22, 01:26:04,VALID,1002.86,VALID,0,VALID,94.2167,VALID,0,VALID,25.8843,VALID,311,VALID,0.68125,
2010-05-22, 01:27:04,VALID,1002.88,VALID,0,VALID,93.9344,VALID,0,VALID,25.9038,VALID,290,VALID,0.829297,
2010-05-22, 01:28:04,VALID,1002.87,VALID,0,VALID,93.7361,VALID,0,VALID,25.9427,VALID,284,VALID,0.25,
2010-05-22, 01:29:04,VALID,1002.89,VALID,0,VALID,93.2707,VALID,0,VALID,25.9817,VALID,286,VALID,0.452344,
2010-05-22, 01:30:04,VALID,1002.88,VALID,0,VALID,92.0806,VALID,0,VALID,26.0012,VALID,294,VALID,0.342969,
2010-05-22, 01:31:04,VALID,1002.87,VALID,0,VALID,91.6229,VALID,0.100563,VALID,26.0187,VALID,294,VALID,0,
2010-05-22, 01:32:04,VALID,1002.9,VALID,0,VALID,91.0736,VALID,0,VALID,26.0167,VALID,294,VALID,0.316016,
2010-05-22, 01:33:04,VALID,1002.87,VALID,0,VALID,90.9591,VALID,0.100563,VALID,26.0167,VALID,292,VALID,0.230078,
2010-05-22, 01:34:04,VALID,1002.88,VALID,0,VALID,90.8676,VALID,0.100563,VALID,26.0187,VALID,290,VALID,0.419531,
2010-05-22, 01:35:04,VALID,1002.92,VALID,0,VALID,91.0431,VALID,0.100563,VALID,26.0187,VALID,290,VALID,0.166016,
2010-05-22, 01:36:04,VALID,1002.91,VALID,0,VALID,90.7074,VALID,0.100563,VALID,25.9777,VALID,290,VALID,0.360547,
2010-05-22, 01:37:04,VALID,1002.91,VALID,0,VALID,90.8905,VALID,0.100563,VALID,25.9797,VALID,291,VALID,0.29375,
2010-05-22, 01:38:04,VALID,1002.92,VALID,0,VALID,91.188,VALID,0.100563,VALID,25.9408,VALID,291,VALID,0.207422,
2010-05-22, 01:39:04,VALID,1002.91,VALID,0,VALID,91.7754,VALID,0.100563,VALID,25.9018,VALID,1,VALID,0.759375,
2010-05-22, 01:40:04,VALID,1002.94,VALID,0,VALID,92.6528,VALID,0.100563,VALID,25.8609,VALID,1,VALID,0.579297,
2010-05-22, 01:41:04,VALID,1002.91,VALID,0,VALID,93.3546,VALID,0.100563,VALID,25.8025,VALID,1,VALID,0.448438,
2010-05-22, 01:42:04,VALID,1002.96,VALID,0,VALID,93.6826,VALID,0,VALID,25.8064,VALID,354,VALID,0.428125,
2010-05-22, 01:43:04,VALID,1002.93,VALID,0,VALID,93.8581,VALID,0,VALID,25.746,VALID,354,VALID,0.196484,
2010-05-22, 01:44:04,VALID,1002.93,VALID,0,VALID,94.0031,VALID,0.100563,VALID,25.7051,VALID,354,VALID,0,
2010-05-22, 01:45:04,VALID,1002.95,VALID,0,VALID,94.2243,VALID,0.100563,VALID,25.7051,VALID,286,VALID,0.393359,
2010-05-22, 01:46:04,VALID,1002.94,VALID,0,VALID,94.3235,VALID,0,VALID,25.709,VALID,286,VALID,0.453906,
2010-05-22, 01:47:04,VALID,1002.95,VALID,0,VALID,94.415,VALID,0,VALID,25.6895,VALID,286,VALID,0.146484,
2010-05-22, 01:48:04,VALID,1002.92,VALID,0,VALID,94.3998,VALID,0,VALID,25.6876,VALID,286,VALID,0.00195313,
2010-05-22, 01:49:04,VALID,1002.91,VALID,0,VALID,94.415,VALID,0,VALID,25.709,VALID,286,VALID,0.384375,
2010-05-22, 01:50:04,VALID,1002.88,VALID,0,VALID,94.3769,VALID,0,VALID,25.709,VALID,286,VALID,0.255078,
2010-05-22, 01:51:04,VALID,1002.87,VALID,0,VALID,94.4227,VALID,0,VALID,25.709,VALID,286,VALID,0.00195313,
2010-05-22, 01:52:04,VALID,1002.87,VALID,0,VALID,94.4532,VALID,0,VALID,25.709,VALID,286,VALID,0.158203,
2010-05-22, 01:53:04,VALID,1002.88,VALID,0,VALID,94.415,VALID,0,VALID,25.7285,VALID,286,VALID,0.268359,
2010-05-22, 01:54:04,VALID,1002.87,VALID,0,VALID,94.3006,VALID,0,VALID,25.7071,VALID,314,VALID,0.650781,
2010-05-22, 01:55:04,VALID,1002.87,VALID,0,VALID,94.3998,VALID,0,VALID,25.7071,VALID,353,VALID,0.319922,
2010-05-22, 01:56:04,VALID,1002.87,VALID,0,VALID,94.5066,VALID,0,VALID,25.67,VALID,353,VALID,0.372656,
2010-05-22, 01:57:04,VALID,1002.84,VALID,0,VALID,94.5447,VALID,0,VALID,25.6116,VALID,353,VALID,0.343359,
2010-05-22, 01:58:04,VALID,1002.81,VALID,0,VALID,94.7202,VALID,0,VALID,25.5727,VALID,353,VALID,0.453906,
2010-05-22, 01:59:04,VALID,1002.81,VALID,0,VALID,94.9338,VALID,0,VALID,25.5532,VALID,353,VALID,0.547656,
2010-05-22, 02:00:04,VALID,1002.81,VALID,0,VALID,95.0635,VALID,0,VALID,25.4948,VALID,353,VALID,0.490625,
2010-05-22, 02:01:04,VALID,1002.79,VALID,0,VALID,95.2237,VALID,0,VALID,25.4539,VALID,353,VALID,0.544922,
2010-05-22, 02:02:04,VALID,1002.79,VALID,0,VALID,95.3839,VALID,0,VALID,25.4363,VALID,353,VALID,0.574609,
2010-05-22, 02:03:04,VALID,1002.81,VALID,0,VALID,95.5288,VALID,0,VALID,25.4169,VALID,353,VALID,0.610156,
2010-05-22, 02:04:04,VALID,1002.79,VALID,0,VALID,95.6585,VALID,0,VALID,25.3584,VALID,353,VALID,0.524219,
2010-05-22, 02:05:04,VALID,1002.79,VALID,0,VALID,95.7882,VALID,0,VALID,25.339,VALID,353,VALID,0.589844,
2010-05-22, 02:06:04,VALID,1002.79,VALID,0,VALID,95.8721,VALID,0,VALID,25.3,VALID,353,VALID,0.496875,
2010-05-22, 02:07:04,VALID,1002.78,VALID,0,VALID,95.9027,VALID,0,VALID,25.2806,VALID,353,VALID,0.498047,
2010-05-22, 02:08:04,VALID,1002.84,VALID,0,VALID,95.9866,VALID,0,VALID,25.2416,VALID,353,VALID,0.378906,
2010-05-22, 02:09:04,VALID,1002.83,VALID,0,VALID,96.0857,VALID,0,VALID,25.2416,VALID,353,VALID,0.415625,
2010-05-22, 02:10:04,VALID,1002.84,VALID,0,VALID,96.1697,VALID,0,VALID,25.2221,VALID,353,VALID,0.478125,
2010-05-22, 02:11:04,VALID,1002.85,VALID,0,VALID,96.2765,VALID,0,VALID,25.2007,VALID,353,VALID,0.442969,
2010-05-22, 02:12:04,VALID,1002.85,VALID,0,VALID,96.3528,VALID,0,VALID,25.1813,VALID,353,VALID,0.429688,
2010-05-22, 02:13:04,VALID,1002.85,VALID,0,VALID,96.4062,VALID,0,VALID,25.2027,VALID,353,VALID,0.335156,
2010-05-22, 02:14:04,VALID,1002.85,VALID,0,VALID,96.4672,VALID,0,VALID,25.2027,VALID,353,VALID,0.417969,
2010-05-22, 02:15:04,VALID,1002.85,VALID,0,VALID,96.5359,VALID,0,VALID,25.2027,VALID,353,VALID,0.33125,
2010-05-22, 02:16:04,VALID,1002.83,VALID,0,VALID,96.5511,VALID,0.100563,VALID,25.1794,VALID,353,VALID,0.273047,
2010-05-22, 02:17:04,VALID,1002.86,VALID,0,VALID,96.5893,VALID,0.100563,VALID,25.1813,VALID,353,VALID,0.326172,
2010-05-22, 02:18:04,VALID,1002.85,VALID,0,VALID,96.5969,VALID,0.100563,VALID,25.1813,VALID,353,VALID,0.242188,
2010-05-22, 02:19:04,VALID,1002.84,VALID,0,VALID,96.635,VALID,0.100563,VALID,25.1813,VALID,353,VALID,0.253125,
2010-05-22, 02:20:04,VALID,1002.84,VALID,0,VALID,96.6427,VALID,0,VALID,25.1618,VALID,353,VALID,0.169922,
2010-05-22, 02:21:04,VALID,1002.87,VALID,0,VALID,96.7113,VALID,0,VALID,25.1813,VALID,353,VALID,0,
2010-05-22, 02:22:04,VALID,1002.89,VALID,0,VALID,96.7189,VALID,0,VALID,25.1599,VALID,353,VALID,0,
2010-05-22, 02:23:04,VALID,1002.89,VALID,0,VALID,96.7342,VALID,0,VALID,25.1813,VALID,353,VALID,0,
2010-05-22, 02:24:04,VALID,1002.92,VALID,0,VALID,96.78,VALID,0.100563,VALID,25.1813,VALID,353,VALID,0.197266,
2010-05-22, 02:25:04,VALID,1002.89,VALID,0,VALID,96.7952,VALID,0.100563,VALID,25.1813,VALID,353,VALID,0.185547,
2010-05-22, 02:26:04,VALID,1002.83,VALID,0,VALID,96.7876,VALID,0.100563,VALID,25.1813,VALID,353,VALID,0.294531,
2010-05-22, 02:27:04,VALID,1002.82,VALID,0,VALID,96.7952,VALID,0.100563,VALID,25.1599,VALID,353,VALID,0.416797,
2010-05-22, 02:28:04,VALID,1002.79,VALID,0,VALID,96.8105,VALID,0.100563,VALID,25.1618,VALID,353,VALID,0.344531,
2010-05-22, 02:29:04,VALID,1002.75,VALID,0,VALID,96.8029,VALID,0.100563,VALID,25.1423,VALID,353,VALID,0.35,
2010-05-22, 02:30:04,VALID,1002.71,VALID,0,VALID,96.8105,VALID,0.100563,VALID,25.1423,VALID,353,VALID,0.309766,
2010-05-22, 02:31:04,VALID,1002.69,VALID,0,VALID,96.841,VALID,0,VALID,25.1034,VALID,353,VALID,0.291797,
2010-05-22, 02:32:04,VALID,1002.7,VALID,0,VALID,96.841,VALID,0.100563,VALID,25.1034,VALID,353,VALID,0.148438,
2010-05-22, 02:33:04,VALID,1002.66,VALID,0,VALID,96.8792,VALID,0,VALID,25.1034,VALID,353,VALID,0,
2010-05-22, 02:34:04,VALID,1002.65,VALID,0,VALID,96.902,VALID,0,VALID,25.1034,VALID,353,VALID,0,
2010-05-22, 02:35:04,VALID,1002.66,VALID,0,VALID,96.9173,VALID,0.100563,VALID,25.0839,VALID,353,VALID,0.232812,
2010-05-22, 02:36:04,VALID,1002.66,VALID,0,VALID,96.8944,VALID,0,VALID,25.0839,VALID,353,VALID,0.301172,
2010-05-22, 02:37:04,VALID,1002.63,VALID,0,VALID,96.8792,VALID,0,VALID,25.1034,VALID,353,VALID,0.252734,
2010-05-22, 02:38:04,VALID,1002.66,VALID,0,VALID,96.9097,VALID,0,VALID,25.0644,VALID,353,VALID,0.245312,
2010-05-22, 02:39:04,VALID,1002.69,VALID,0,VALID,96.9249,VALID,0,VALID,25.0644,VALID,353,VALID,0.194922,
2010-05-22, 02:40:04,VALID,1002.72,VALID,0,VALID,96.9249,VALID,0.100563,VALID,25.045,VALID,353,VALID,0.162891,
2010-05-22, 02:41:04,VALID,1002.73,VALID,0,VALID,96.9326,VALID,0,VALID,25.0236,VALID,353,VALID,0,
2010-05-22, 02:42:04,VALID,1002.75,VALID,0,VALID,96.9478,VALID,0,VALID,25.006,VALID,353,VALID,0,
2010-05-22, 02:43:04,VALID,1002.74,VALID,0,VALID,96.9631,VALID,0,VALID,25.006,VALID,353,VALID,0,
2010-05-22, 02:44:04,VALID,1002.77,VALID,0,VALID,96.9783,VALID,0.100563,VALID,24.9652,VALID,353,VALID,0,
2010-05-22, 02:45:04,VALID,1002.76,VALID,0,VALID,96.986,VALID,0.100563,VALID,24.9652,VALID,353,VALID,0,
2010-05-22, 02:46:04,VALID,1002.8,VALID,0,VALID,97.0241,VALID,0,VALID,24.9904,VALID,353,VALID,0,
2010-05-22, 02:47:04,VALID,1002.8,VALID,0,VALID,97.047,VALID,0,VALID,24.969,VALID,353,VALID,0.196875,
2010-05-22, 02:48:04,VALID,1002.77,VALID,0,VALID,97.0241,VALID,0,VALID,24.9885,VALID,353,VALID,0.179297,
2010-05-22, 02:49:04,VALID,1002.79,VALID,0,VALID,97.0546,VALID,0,VALID,24.9671,VALID,353,VALID,0.442969,
2010-05-22, 02:50:04,VALID,1002.79,VALID,0,VALID,97.0622,VALID,0,VALID,24.969,VALID,353,VALID,0.524219,
2010-05-22, 02:51:04,VALID,1002.77,VALID,0,VALID,97.0775,VALID,0,VALID,24.9495,VALID,353,VALID,0.455469,
2010-05-22, 02:52:04,VALID,1002.7,VALID,0,VALID,97.0928,VALID,0,VALID,24.9495,VALID,353,VALID,0.462109,
2010-05-22, 02:53:04,VALID,1002.7,VALID,0,VALID,97.0775,VALID,0,VALID,24.9282,VALID,353,VALID,0.263672,
2010-05-22, 02:54:04,VALID,1002.69,VALID,0,VALID,97.108,VALID,0,VALID,24.93,VALID,353,VALID,0.463281,
2010-05-22, 02:55:04,VALID,1002.71,VALID,0,VALID,97.108,VALID,0,VALID,24.8892,VALID,353,VALID,0.469531,
2010-05-22, 02:56:04,VALID,1002.66,VALID,0,VALID,97.1309,VALID,0,VALID,24.9106,VALID,353,VALID,0.502344,
2010-05-22, 02:57:04,VALID,1002.71,VALID,0,VALID,97.1385,VALID,0,VALID,24.9106,VALID,353,VALID,0.474219,
2010-05-22, 02:58:04,VALID,1002.69,VALID,0,VALID,97.1385,VALID,0,VALID,24.8911,VALID,354,VALID,0.5,
2010-05-22, 02:59:04,VALID,1002.7,VALID,0,VALID,97.1614,VALID,0,VALID,24.8911,VALID,353,VALID,0.417969,
2010-05-22, 03:00:04,VALID,1002.71,VALID,0,VALID,97.1691,VALID,0,VALID,24.8911,VALID,354,VALID,0.358594,
2010-05-22, 03:01:04,VALID,1002.67,VALID,0,VALID,97.2072,VALID,0.100563,VALID,24.8679,VALID,353,VALID,0.351563,
2010-05-22, 03:02:04,VALID,1002.71,VALID,0,VALID,97.2072,VALID,0,VALID,24.8679,VALID,353,VALID,0.337109,
2010-05-22, 03:03:04,VALID,1002.68,VALID,0,VALID,97.2148,VALID,0.100563,VALID,24.8892,VALID,353,VALID,0.331641,
2010-05-22, 03:04:04,VALID,1002.7,VALID,0,VALID,97.2225,VALID,0.100563,VALID,24.8892,VALID,353,VALID,0.287891,
2010-05-22, 03:05:04,VALID,1002.68,VALID,0,VALID,97.2148,VALID,0,VALID,24.8484,VALID,353,VALID,0.347656,
2010-05-22, 03:06:04,VALID,1002.63,VALID,0,VALID,97.2301,VALID,0,VALID,24.8892,VALID,353,VALID,0.402734,
2010-05-22, 03:07:04,VALID,1002.67,VALID,0,VALID,97.2148,VALID,0.100563,VALID,24.8892,VALID,353,VALID,0.414063,
2010-05-22, 03:08:04,VALID,1002.63,VALID,0,VALID,97.2453,VALID,0.100563,VALID,24.8892,VALID,353,VALID,0.335547,
2010-05-22, 03:09:04,VALID,1002.63,VALID,0,VALID,97.2682,VALID,0.100563,VALID,24.8892,VALID,353,VALID,0.436719,
2010-05-22, 03:10:04,VALID,1002.63,VALID,0,VALID,97.2682,VALID,0,VALID,24.8679,VALID,353,VALID,0.361719,
2010-05-22, 03:11:04,VALID,1002.64,VALID,0,VALID,97.2835,VALID,0,VALID,24.8697,VALID,353,VALID,0.332812,
2010-05-22, 03:12:04,VALID,1002.63,VALID,0,VALID,97.2759,VALID,0.100563,VALID,24.8892,VALID,353,VALID,0.303906,
2010-05-22, 03:13:04,VALID,1002.66,VALID,0,VALID,97.2835,VALID,0.100563,VALID,24.8892,VALID,353,VALID,0.262109,
2010-05-22, 03:14:04,VALID,1002.66,VALID,0,VALID,97.2987,VALID,0,VALID,24.8697,VALID,353,VALID,0.222266,
2010-05-22, 03:15:04,VALID,1002.68,VALID,0,VALID,97.2682,VALID,0,VALID,24.8697,VALID,353,VALID,0.288672,
2010-05-22, 03:16:04,VALID,1002.69,VALID,0,VALID,97.2759,VALID,0,VALID,24.9125,VALID,353,VALID,0.423047,
2010-05-22, 03:17:04,VALID,1002.7,VALID,0,VALID,97.2835,VALID,0,VALID,24.8697,VALID,353,VALID,0.410547,
2010-05-22, 03:18:04,VALID,1002.69,VALID,0,VALID,97.2835,VALID,0,VALID,24.9106,VALID,354,VALID,0.577734,
2010-05-22, 03:19:04,VALID,1002.7,VALID,0,VALID,97.2682,VALID,0,VALID,24.9106,VALID,353,VALID,0.544922,
2010-05-22, 03:20:04,VALID,1002.72,VALID,0,VALID,97.2987,VALID,0,VALID,24.9106,VALID,354,VALID,0.508594,
2010-05-22, 03:21:04,VALID,1002.72,VALID,0,VALID,97.3064,VALID,0,VALID,24.93,VALID,353,VALID,0.444922,
2010-05-22, 03:22:04,VALID,1002.72,VALID,0,VALID,97.314,VALID,0,VALID,24.9087,VALID,354,VALID,0.465625,
2010-05-22, 03:23:04,VALID,1002.71,VALID,0,VALID,97.3216,VALID,0,VALID,24.9495,VALID,354,VALID,0.448828,
2010-05-22, 03:24:04,VALID,1002.67,VALID,0,VALID,97.3521,VALID,0,VALID,24.93,VALID,354,VALID,0.35625,
2010-05-22, 03:25:04,VALID,1002.66,VALID,0,VALID,97.3293,VALID,0,VALID,24.93,VALID,353,VALID,0.430859,
2010-05-22, 03:26:04,VALID,1002.62,VALID,0,VALID,97.3369,VALID,0,VALID,24.9106,VALID,353,VALID,0.526172,
2010-05-22, 03:27:04,VALID,1002.61,VALID,0,VALID,97.3216,VALID,0,VALID,24.93,VALID,354,VALID,0.570703,
2010-05-22, 03:28:04,VALID,1002.61,VALID,0,VALID,97.3216,VALID,0,VALID,24.93,VALID,353,VALID,0.491016,
2010-05-22, 03:29:04,VALID,1002.64,VALID,0,VALID,97.3216,VALID,0,VALID,24.9087,VALID,354,VALID,0.532812,
2010-05-22, 03:30:04,VALID,1002.64,VALID,0,VALID,97.3064,VALID,0,VALID,24.9106,VALID,354,VALID,0.463281,
2010-05-22, 03:31:04,VALID,1002.66,VALID,0,VALID,97.3064,VALID,0,VALID,24.9106,VALID,354,VALID,0.476172,
2010-05-22, 03:32:04,VALID,1002.71,VALID,0,VALID,97.3216,VALID,0,VALID,24.9087,VALID,354,VALID,0.418359,
2010-05-22, 03:33:04,VALID,1002.75,VALID,0,VALID,97.2987,VALID,0,VALID,24.9106,VALID,353,VALID,0.4625,
2010-05-22, 03:34:04,VALID,1002.79,VALID,0,VALID,97.2911,VALID,0,VALID,24.9106,VALID,353,VALID,0.445703,
2010-05-22, 03:35:04,VALID,1002.78,VALID,0,VALID,97.3216,VALID,0,VALID,24.8911,VALID,354,VALID,0.285937,
2010-05-22, 03:36:04,VALID,1002.8,VALID,0,VALID,97.2911,VALID,0,VALID,24.9106,VALID,353,VALID,0.174219,
2010-05-22, 03:37:04,VALID,1002.8,VALID,0,VALID,97.2987,VALID,0,VALID,24.8911,VALID,354,VALID,0.226172,
2010-05-22, 03:38:04,VALID,1002.82,VALID,0,VALID,97.2987,VALID,0,VALID,24.93,VALID,354,VALID,0.291406,
2010-05-22, 03:39:04,VALID,1002.78,VALID,0,VALID,97.3216,VALID,0,VALID,24.9106,VALID,353,VALID,0.432422,
2010-05-22, 03:40:04,VALID,1002.79,VALID,0,VALID,97.3064,VALID,0,VALID,24.9106,VALID,354,VALID,0.364062,
2010-05-22, 03:41:04,VALID,1002.74,VALID,0,VALID,97.314,VALID,0,VALID,24.9106,VALID,353,VALID,0.306641,